When you browse on this site, cookies collect data to enhance your experience and personalize the content and advertising you see.
Visit our Privacy Policy to learn more. By continuing to use the site, you agree to this use of cookies and data.
  • In Czech Republic
  • List of Countries
  • For 7 days
  • Water Temperature
  • Weather Map
  • Weather Widgets
  • user-avatar
    Login

    Hourly Weather Stepanakert

    Today, 16 September, Monday

    Time Temperature Precipitation Wind Pressure Humidity
    00:00 +19°C° 0.2 mm 1 mps 696 mmHg 76%
    01:00 +18°C° 0.3 mm 1 mps 695 mmHg 78%
    02:00 +18°C° 0.3 mm 1 mps 695 mmHg 80%
    03:00 +16°C° 0.3 mm 1 mps 695 mmHg 83%
    04:00 +16°C° 0.2 mm 1 mps 695 mmHg 82%
    05:00 +16°C° 0.2 mm 1 mps 695 mmHg 82%
    06:00 +15°C° 0.2 mm 0 mps 696 mmHg 82%
    07:00 +19°C° 0.1 mm 1 mps 696 mmHg 75%
    08:00 +20°C° 0.1 mm 1 mps 696 mmHg 69%
    09:00 +22°C° 0.1 mm 1 mps 696 mmHg 62%
    10:00 +23°C° 0 mm 2 mps 695 mmHg 60%
    11:00 +24°C° 0 mm 2 mps 695 mmHg 57%
    12:00 +25°C° 0 mm 3 mps 694 mmHg 55%
    13:00 +25°C° 0 mm 3 mps 694 mmHg 55%
    14:00 +25°C° 0 mm 2 mps 693 mmHg 54%
    15:00 +26°C° 0 mm 2 mps 692 mmHg 54%
    16:00 +24°C° 0 mm 2 mps 692 mmHg 60%
    17:00 +23°C° 0 mm 1 mps 691 mmHg 67%
    18:00 +21°C° 0 mm 1 mps 691 mmHg 73%
    19:00 +21°C° 0 mm 1 mps 691 mmHg 77%
    20:00 +20°C° 0 mm 1 mps 691 mmHg 80%
    21:00 +19°C° 0 mm 1 mps 692 mmHg 83%
    22:00 +19°C° 0 mm 1 mps 691 mmHg 82%
    23:00 +19°C° 0 mm 1 mps 691 mmHg 82%

    Tomorrow, 17 September, Tuesday

    Time Temperature Precipitation Wind Pressure Humidity
    00:00 +19°C° 0 mm 1 mps 691 mmHg 81%
    01:00 +19°C° 0 mm 1 mps 691 mmHg 79%
    02:00 +19°C° 0 mm 1 mps 691 mmHg 77%
    03:00 +19°C° 0 mm 1 mps 691 mmHg 76%
    04:00 +19°C° 0 mm 1 mps 691 mmHg 72%
    05:00 +19°C° 0 mm 1 mps 690 mmHg 69%
    06:00 +19°C° 0 mm 1 mps 690 mmHg 66%
    07:00 +21°C° 0 mm 1 mps 691 mmHg 59%
    08:00 +24°C° 0 mm 1 mps 691 mmHg 51%
    09:00 +26°C° 0 mm 1 mps 692 mmHg 44%
    10:00 +27°C° 0 mm 2 mps 692 mmHg 40%
    11:00 +29°C° 0 mm 2 mps 691 mmHg 37%
    12:00 +30°C° 0 mm 2 mps 691 mmHg 34%
    13:00 +30°C° 0 mm 2 mps 690 mmHg 34%
    14:00 +30°C° 0 mm 3 mps 690 mmHg 34%
    15:00 +31°C° 0 mm 3 mps 689 mmHg 33%
    16:00 +28°C° 0 mm 2 mps 689 mmHg 42%
    17:00 +26°C° 0 mm 1 mps 688 mmHg 50%
    18:00 +24°C° 0 mm 1 mps 688 mmHg 59%
    19:00 +24°C° 0 mm 1 mps 689 mmHg 60%
    20:00 +23°C° 0 mm 1 mps 690 mmHg 61%
    21:00 +22°C° 0 mm 1 mps 690 mmHg 62%
    22:00 +22°C° 0 mm 1 mps 691 mmHg 66%
    23:00 +21°C° 0 mm 1 mps 691 mmHg 71%

    Day after tomorrow, 18 September, Wednesday

    Time Temperature Precipitation Wind Pressure Humidity
    00:00 +20°C° 0 mm 1 mps 691 mmHg 75%
    01:00 +19°C° 0.1 mm 1 mps 691 mmHg 75%
    02:00 +19°C° 0.1 mm 1 mps 691 mmHg 75%
    03:00 +18°C° 0.1 mm 2 mps 691 mmHg 75%
    04:00 +19°C° 0 mm 1 mps 692 mmHg 75%
    05:00 +19°C° 0 mm 1 mps 692 mmHg 75%
    06:00 +19°C° 0 mm 1 mps 692 mmHg 75%
    07:00 +21°C° 0 mm 1 mps 693 mmHg 67%
    08:00 +23°C° 0 mm 1 mps 694 mmHg 60%
    09:00 +25°C° 0 mm 2 mps 695 mmHg 53%
    10:00 +26°C° 0 mm 2 mps 695 mmHg 50%
    11:00 +26°C° 0 mm 2 mps 694 mmHg 47%
    12:00 +27°C° 0 mm 3 mps 694 mmHg 44%
    13:00 +28°C° 0 mm 3 mps 694 mmHg 44%
    14:00 +28°C° 0 mm 2 mps 694 mmHg 43%
    15:00 +28°C° 0 mm 2 mps 693 mmHg 43%
    16:00 +26°C° 0 mm 2 mps 693 mmHg 47%
    17:00 +25°C° 0 mm 2 mps 693 mmHg 52%
    18:00 +23°C° 0 mm 1 mps 693 mmHg 57%
    19:00 +23°C° 0 mm 1 mps 693 mmHg 58%
    20:00 +22°C° 0 mm 1 mps 693 mmHg 59%
    21:00 +21°C° 0 mm 2 mps 693 mmHg 60%
    22:00 +21°C° 0 mm 1 mps 693 mmHg 60%
    23:00 +21°C° 0 mm 1 mps 693 mmHg 60%

    19 September, Thursday

    Time Temperature Precipitation Wind Pressure Humidity
    00:00 +21°C° 0 mm 1 mps 693 mmHg 60%
    01:00 +20°C° 0 mm 1 mps 693 mmHg 58%
    02:00 +20°C° 0 mm 1 mps 692 mmHg 56%
    03:00 +19°C° 0 mm 2 mps 692 mmHg 54%
    04:00 +20°C° 0 mm 1 mps 692 mmHg 53%
    05:00 +20°C° 0 mm 1 mps 692 mmHg 52%
    06:00 +20°C° 0 mm 1 mps 692 mmHg 51%
    07:00 +22°C° 0 mm 1 mps 692 mmHg 47%
    08:00 +24°C° 0 mm 1 mps 693 mmHg 43%
    09:00 +27°C° 0 mm 1 mps 693 mmHg 39%
    10:00 +28°C° 0 mm 2 mps 694 mmHg 37%
    11:00 +29°C° 0 mm 2 mps 694 mmHg 36%
    12:00 +30°C° 0 mm 3 mps 694 mmHg 34%
    13:00 +30°C° 0 mm 3 mps 694 mmHg 34%
    14:00 +30°C° 0 mm 3 mps 693 mmHg 33%
    15:00 +30°C° 0 mm 3 mps 693 mmHg 32%
    16:00 +28°C° 0 mm 2 mps 693 mmHg 37%
    17:00 +26°C° 0 mm 2 mps 693 mmHg 41%
    18:00 +24°C° 0 mm 1 mps 693 mmHg 45%
    19:00 +23°C° 0 mm 1 mps 693 mmHg 49%
    20:00 +22°C° 0 mm 1 mps 693 mmHg 53%
    21:00 +21°C° 0 mm 2 mps 693 mmHg 57%
    22:00 +21°C° 0 mm 1 mps 693 mmHg 63%
    23:00 +20°C° 0 mm 1 mps 693 mmHg 68%

    20 September, Friday

    Time Temperature Precipitation Wind Pressure Humidity
    00:00 +19°C° 0 mm 1 mps 693 mmHg 73%
    01:00 +19°C° 0 mm 1 mps 693 mmHg 76%
    02:00 +18°C° 0 mm 1 mps 693 mmHg 80%
    03:00 +18°C° 0 mm 1 mps 692 mmHg 83%
    04:00 +18°C° 0 mm 1 mps 692 mmHg 84%
    05:00 +18°C° 0 mm 1 mps 692 mmHg 85%
    06:00 +18°C° 0 mm 1 mps 692 mmHg 86%
    07:00 +19°C° 0 mm 1 mps 692 mmHg 81%
    08:00 +20°C° 0 mm 1 mps 692 mmHg 76%
    09:00 +21°C° 0 mm 1 mps 692 mmHg 72%
    10:00 +21°C° 0 mm 2 mps 692 mmHg 68%
    11:00 +23°C° 0 mm 2 mps 692 mmHg 64%
    12:00 +25°C° 0 mm 2 mps 692 mmHg 60%
    13:00 +25°C° 0 mm 2 mps 691 mmHg 58%
    14:00 +26°C° 0 mm 2 mps 690 mmHg 57%
    15:00 +26°C° 0 mm 2 mps 690 mmHg 55%
    16:00 +25°C° 0 mm 2 mps 689 mmHg 61%
    17:00 +23°C° 0 mm 1 mps 689 mmHg 67%
    18:00 +22°C° 0 mm 1 mps 688 mmHg 73%
    19:00 +21°C° 0 mm 1 mps 688 mmHg 74%
    20:00 +21°C° 0 mm 1 mps 689 mmHg 74%
    21:00 +20°C° 0 mm 1 mps 689 mmHg 75%
    22:00 +20°C° 0 mm 1 mps 689 mmHg 76%
    23:00 +17°C° 0 mm 0 mps 689 mmHg 77%

    21 September, Saturday

    Time Temperature Precipitation Wind Pressure Humidity
    00:00 +17°C° 0 mm 0 mps 689 mmHg 78%
    01:00 +17°C° 0 mm 0 mps 688 mmHg 81%
    02:00 +16°C° 0 mm 0 mps 688 mmHg 84%
    03:00 +15°C° 0 mm 0 mps 688 mmHg 87%
    04:00 +15°C° 0 mm 0 mps 687 mmHg 86%
    05:00 +15°C° 0 mm 0 mps 687 mmHg 86%
    06:00 +15°C° 0 mm 0 mps 687 mmHg 86%
    07:00 +19°C° 0 mm 1 mps 688 mmHg 80%
    08:00 +21°C° 0 mm 1 mps 688 mmHg 73%
    09:00 +21°C° 0 mm 2 mps 688 mmHg 67%
    10:00 +23°C° 0 mm 2 mps 688 mmHg 63%
    11:00 +24°C° 0 mm 3 mps 688 mmHg 60%
    12:00 +25°C° 0 mm 3 mps 688 mmHg 56%
    13:00 +25°C° 0 mm 3 mps 687 mmHg 55%
    14:00 +25°C° 0 mm 3 mps 687 mmHg 54%
    15:00 +26°C° 0 mm 3 mps 686 mmHg 54%
    16:00 +24°C° 0 mm 3 mps 687 mmHg 57%
    17:00 +23°C° 0 mm 2 mps 687 mmHg 60%
    18:00 +21°C° 0 mm 2 mps 687 mmHg 63%
    19:00 +20°C° 0 mm 2 mps 688 mmHg 70%
    20:00 +19°C° 0 mm 2 mps 688 mmHg 77%
    21:00 +17°C° 0 mm 2 mps 689 mmHg 84%
    22:00 +17°C° 0.2 mm 3 mps 689 mmHg 85%
    23:00 +16°C° 0.2 mm 3 mps 689 mmHg 87%
    Show more